Welcome to Des Moines Iowa Weather. I am an independent private personal weather station on the Northwest Side of Des Moines, Iowa. Just East of Windsor Heights and just West of Glendale . This site is also mobile friendly.

There are no active watches, warnings or advisories


Visit our other weather sites:

Historical Data

Weather Station Setup



Weather Underground History page Text

Daily Summary for October 27, 2017 Units:  English    Metric   Both
« Previous Day
Next Day »
Daily Weekly Monthly Yearly Custom
  High: Low: Average:
Temperature: 38.7 °F 33.1 °F 35.2 °F
Dew Point: 30.0 °F 24.0 °F 26.8 °F
Humidity: 78 % 63 % 72 %
Wind Speed: 8.0 mph 0.0 mph 2.7 mph
Wind Gust: 20.0 mph - -
Wind:- - SSE
Pressure: 30.04 in 29.89 in -
Precipitation: 0.00 in    
Historical Graphs
 
 
Tabular Data for October 27, 2017
Time Temperature Dew Point Pressure Wind Wind Speed Wind Gust Humidity Rainfall Rate (Hourly)
00:00 38.7 °F 28.0 °F 29.91 in North 2.0 mph 16.0 mph 66 % 0.00 in
00:15 38.6 °F 28.0 °F 29.91 in NE 2.0 mph 14.0 mph 65 % 0.00 in
00:46 38.2 °F 27.0 °F 29.91 in North 2.0 mph 19.0 mph 65 % 0.00 in
01:01 38.0 °F 27.0 °F 29.91 in NNE 2.0 mph 14.0 mph 64 % 0.00 in
01:16 37.9 °F 27.0 °F 29.91 in North 2.0 mph 12.0 mph 66 % 0.00 in
01:31 37.7 °F 26.0 °F 29.91 in North 8.0 mph 13.0 mph 64 % 0.00 in
01:46 37.3 °F 26.0 °F 29.91 in North 2.0 mph 11.0 mph 63 % 0.00 in
02:01 37.1 °F 26.0 °F 29.91 in NW 2.0 mph 18.0 mph 64 % 0.00 in
02:11 36.9 °F 26.0 °F 29.91 in North 2.0 mph 16.0 mph 64 % 0.00 in
02:26 36.6 °F 26.0 °F 29.91 in WNW 2.0 mph 8.0 mph 65 % 0.00 in
02:41 36.2 °F 25.0 °F 29.91 in West 2.0 mph 20.0 mph 63 % 0.00 in
02:56 36.1 °F 25.0 °F 29.91 in NNW 2.0 mph 10.0 mph 64 % 0.00 in
03:11 36.0 °F 25.0 °F 29.90 in NW 2.0 mph 19.0 mph 65 % 0.00 in
03:26 35.9 °F 25.0 °F 29.90 in North 1.0 mph 10.0 mph 65 % 0.00 in
03:41 35.7 °F 25.0 °F 29.90 in North 3.0 mph 12.0 mph 64 % 0.00 in
03:56 35.5 °F 24.0 °F 29.89 in NNW 3.0 mph 13.0 mph 64 % 0.00 in
04:11 35.4 °F 25.0 °F 29.90 in North 4.0 mph 10.0 mph 65 % 0.00 in
04:27 35.4 °F 25.0 °F 29.89 in North 1.0 mph 15.0 mph 66 % 0.00 in
04:41 35.5 °F 25.0 °F 29.89 in SW 1.0 mph 10.0 mph 66 % 0.00 in
04:57 35.4 °F 25.0 °F 29.90 in North 1.0 mph 17.0 mph 65 % 0.00 in
05:12 35.3 °F 25.0 °F 29.90 in West 4.0 mph 13.0 mph 65 % 0.00 in
05:27 35.2 °F 25.0 °F 29.91 in North 5.0 mph 13.0 mph 66 % 0.00 in
05:42 34.8 °F 25.0 °F 29.91 in North 7.0 mph 10.0 mph 67 % 0.00 in
05:57 34.7 °F 25.0 °F 29.90 in North 1.0 mph 12.0 mph 68 % 0.00 in
06:12 34.6 °F 26.0 °F 29.91 in SE 2.0 mph 8.0 mph 71 % 0.00 in
06:27 34.2 °F 26.0 °F 29.91 in WNW 3.0 mph 9.0 mph 73 % 0.00 in
06:42 33.8 °F 26.0 °F 29.91 in NW 3.0 mph 10.0 mph 73 % 0.00 in
06:57 33.8 °F 26.0 °F 29.91 in North 4.0 mph 14.0 mph 74 % 0.00 in
07:12 33.4 °F 27.0 °F 29.92 in North 4.0 mph 10.0 mph 77 % 0.00 in
07:27 33.2 °F 27.0 °F 29.92 in North 2.0 mph 8.0 mph 78 % 0.00 in
07:42 33.1 °F 27.0 °F 29.91 in North 1.0 mph 5.0 mph 77 % 0.00 in
07:57 33.2 °F 26.0 °F 29.92 in Calm   14.0 mph 76 % 0.00 in
08:12 33.3 °F 27.0 °F 29.92 in North 1.0 mph 9.0 mph 76 % 0.00 in
08:27 33.4 °F 27.0 °F 29.92 in Calm   16.0 mph 76 % 0.00 in
08:42 33.5 °F 27.0 °F 29.92 in WNW 2.0 mph 14.0 mph 77 % 0.00 in
08:57 33.7 °F 27.0 °F 29.92 in West 3.0 mph 14.0 mph 77 % 0.00 in
09:12 33.9 °F 27.0 °F 29.92 in WNW 2.0 mph 14.0 mph 77 % 0.00 in
09:27 33.9 °F 27.0 °F 29.92 in North 2.0 mph 10.0 mph 77 % 0.00 in
09:42 34.1 °F 27.0 °F 29.93 in NNW 4.0 mph 14.0 mph 76 % 0.00 in
09:57 34.4 °F 27.0 °F 29.93 in NW 5.0 mph 9.0 mph 75 % 0.00 in
10:12 34.5 °F 27.0 °F 29.93 in North 5.0 mph 15.0 mph 75 % 0.00 in
10:42 35.2 °F 28.0 °F 29.94 in North 3.0 mph 11.0 mph 74 % 0.00 in
10:57 35.3 °F 27.0 °F 29.94 in NW 1.0 mph 14.0 mph 73 % 0.00 in
11:12 35.6 °F 28.0 °F 29.94 in North 1.0 mph 13.0 mph 73 % 0.00 in
11:27 35.9 °F 28.0 °F 29.95 in North 3.0 mph 11.0 mph 72 % 0.00 in
11:42 36.3 °F 28.0 °F 29.95 in NW 3.0 mph 10.0 mph 71 % 0.00 in
11:57 36.4 °F 29.0 °F 29.95 in Calm   18.0 mph 74 % 0.00 in
12:13 36.2 °F 30.0 °F 29.95 in North 3.0 mph 10.0 mph 77 % 0.00 in
12:28 36.0 °F 28.0 °F 29.95 in North 3.0 mph 10.0 mph 74 % 0.00 in
12:43 36.5 °F 28.0 °F 29.95 in NNW 6.0 mph 16.0 mph 72 % 0.00 in
12:58 36.7 °F 28.0 °F 29.95 in North 4.0 mph 19.0 mph 70 % 0.00 in
13:13 36.8 °F 28.0 °F 29.95 in North 3.0 mph 12.0 mph 71 % 0.00 in
13:28 36.9 °F 28.0 °F 29.95 in West 2.0 mph 13.0 mph 71 % 0.00 in
13:43 37.0 °F 28.0 °F 29.95 in NW 3.0 mph 16.0 mph 70 % 0.00 in
13:58 37.1 °F 28.0 °F 29.95 in WNW 2.0 mph 13.0 mph 70 % 0.00 in
14:13 37.1 °F 28.0 °F 29.94 in North 2.0 mph 14.0 mph 70 % 0.00 in
14:28 37.3 °F 28.0 °F 29.94 in North 2.0 mph 10.0 mph 70 % 0.00 in
14:43 37.4 °F 28.0 °F 29.94 in North 2.0 mph 14.0 mph 69 % 0.00 in
14:58 37.1 °F 28.0 °F 29.94 in WNW 4.0 mph 14.0 mph 69 % 0.00 in
15:13 36.9 °F 28.0 °F 29.95 in North 3.0 mph 13.0 mph 70 % 0.00 in
15:28 36.6 °F 28.0 °F 29.96 in Calm   16.0 mph 72 % 0.00 in
15:43 36.2 °F 28.0 °F 29.96 in NW 2.0 mph 13.0 mph 73 % 0.00 in
15:58 35.7 °F 28.0 °F 29.97 in NW 3.0 mph 16.0 mph 74 % 0.00 in
16:13 35.3 °F 28.0 °F 29.98 in North 5.0 mph 14.0 mph 75 % 0.00 in
16:28 35.1 °F 29.0 °F 29.98 in North 2.0 mph 12.0 mph 77 % 0.00 in
16:43 34.7 °F 28.0 °F 29.99 in North 6.0 mph 15.0 mph 76 % 0.00 in
16:58 34.6 °F 28.0 °F 30.00 in WNW 3.0 mph 14.0 mph 77 % 0.00 in
17:13 34.6 °F 28.0 °F 30.00 in North 2.0 mph 10.0 mph 76 % 0.00 in
17:29 34.6 °F 28.0 °F 30.00 in WSW 2.0 mph 14.0 mph 76 % 0.00 in
17:43 34.6 °F 28.0 °F 30.01 in West 2.0 mph 12.0 mph 76 % 0.00 in
17:58 34.7 °F 28.0 °F 30.01 in West 2.0 mph 8.0 mph 75 % 0.00 in
18:13 34.7 °F 27.0 °F 30.02 in SSW 3.0 mph 13.0 mph 74 % 0.00 in
18:28 34.8 °F 27.0 °F 30.02 in North 2.0 mph 11.0 mph 74 % 0.00 in
18:43 34.8 °F 27.0 °F 30.02 in WNW 2.0 mph 15.0 mph 74 % 0.00 in
18:58 34.7 °F 27.0 °F 30.03 in North 8.0 mph 15.0 mph 72 % 0.00 in
19:13 34.7 °F 27.0 °F 30.04 in North 3.0 mph 9.0 mph 73 % 0.00 in
19:28 34.4 °F 27.0 °F 30.04 in WNW 3.0 mph 13.0 mph 74 % 0.00 in
19:43 34.2 °F 27.0 °F 30.04 in North 3.0 mph 12.0 mph 74 % 0.00 in
19:58 34.0 °F 27.0 °F 30.04 in WSW 3.0 mph 12.0 mph 74 % 0.00 in
20:13 33.9 °F 26.0 °F 30.04 in NW 5.0 mph 11.0 mph 74 % 0.00 in
20:28 33.8 °F 26.0 °F 30.04 in WSW 7.0 mph 13.0 mph 74 % 0.00 in
20:43 33.5 °F 26.0 °F 30.04 in SW 3.0 mph 14.0 mph 75 % 0.00 in
20:58 33.3 °F 26.0 °F 30.04 in NW 5.0 mph 12.0 mph 75 % 0.00 in
21:13 33.2 °F 26.0 °F 30.04 in WNW 2.0 mph 10.0 mph 76 % 0.00 in
21:28 33.3 °F 26.0 °F 30.04 in WNW 2.0 mph 16.0 mph 75 % 0.00 in
21:43 33.3 °F 26.0 °F 30.04 in WSW 1.0 mph 11.0 mph 75 % 0.00 in
21:58 33.4 °F 26.0 °F 30.04 in NNW 1.0 mph 9.0 mph 74 % 0.00 in
22:18 33.5 °F 26.0 °F 30.04 in WNW 2.0 mph 11.0 mph 75 % 0.00 in
22:28 33.5 °F 26.0 °F 30.03 in North 1.0 mph 11.0 mph 75 % 0.00 in
22:43 33.5 °F 26.0 °F 30.03 in North 2.0 mph 8.0 mph 75 % 0.00 in
22:58 33.5 °F 27.0 °F 30.03 in North 2.0 mph 9.0 mph 76 % 0.00 in
23:13 33.3 °F 27.0 °F 30.03 in North 2.0 mph 9.0 mph 76 % 0.00 in
23:28 33.2 °F 27.0 °F 30.03 in North 2.0 mph 6.0 mph 77 % 0.00 in
23:43 33.2 °F 27.0 °F 30.03 in North 2.0 mph 8.0 mph 77 % 0.00 in
23:59 33.2 °F 27.0 °F 30.03 in ENE 1.0 mph 9.0 mph 77 % 0.00 in
Des Moines Weather and Climate
Compliments of Weather Underground - 3 mb

Script developed by  Jim McMurry - jmcmurry@mwt.net Adapted for the template by  Wim van der Kuil - Leuven-Template.eu

You find our weather info also at:

Weather Underground

Equipment we use:

Weather-station
Davis VP2 Plus

Weather-program
Davis Weatherlink.Com

Weather-server
iMac (Retina 4K, 21.5-inch, Late 2015)

Provider
Hostmonster.com

Davis VP2 Plus

Davis Weatherlink.Com

iMac (Retina 4K, 21.5-inch, Late 2015)

Hostmonster.com